Location: *
(50.5492°N, 7.7469°E)
Time: 01:57:37
(UTC+00:00)

STARLINK-33 - Pass Details

Date: 21 October 2019
Orbit: 548 x 551 km, 53.0° (Epoch: 14 November)

Event Time Altitude Azimuth Distance (km) Brightness Sun altitude
Rises 16:49:15 0° 261° (W) 2,713 10.3 -4.5°
Reaches altitude 10° 16:51:29 10° 263° (W) 1,821 8.2 -4.8°
Maximum altitude 16:55:37 70° 348° (NNW) 588 3.8 -5.5°
Drops below altitude 10° 16:59:45 10° 73° (ENE) 1,825 5.6 -6.1°
Enters shadow 17:00:15 - 73° (ENE) 2,018 5.8 -6.2°
